Time,TemperatureF,DewpointF,PressureIn,WindDirection,WindDirectionDegrees,WindSpeedMPH,WindSpeedGustMPH,Humidity,HourlyPrecipIn,Conditions,Clouds,dailyrainin,SoftwareType,DateUTC
2013-06-01 00:00:00,72.0,65.0,-100.00,SW,226,4.0,8.0,79,-99.99,,,-99.99,,2013-06-01 04:00:00,
2013-06-01 00:23:00,72.0,65.0,-100.00,SW,226,4.0,8.0,79,-99.99,,,-99.99,,2013-06-01 04:23:00,
2013-06-01 00:33:00,72.0,65.0,-100.00,SW,226,4.0,8.0,79,-99.99,,,-99.99,,2013-06-01 04:33:00,
2013-06-01 00:42:00,72.0,65.0,-100.00,SW,226,4.0,8.0,79,-99.99,,,-99.99,,2013-06-01 04:42:00,
2013-06-01 00:53:00,72.0,65.0,-100.00,SW,226,4.0,8.0,79,-99.99,,,-99.99,,2013-06-01 04:53:00,
2013-06-01 01:00:00,71.0,64.0,-100.00,SW,217,3.0,8.0,79,-99.99,,,-99.99,,2013-06-01 05:00:00,
2013-06-01 01:32:00,71.0,64.0,-100.00,SW,217,3.0,8.0,79,-99.99,,,-99.99,,2013-06-01 05:32:00,
2013-06-01 01:43:00,71.0,64.0,-100.00,SW,217,3.0,8.0,79,-99.99,,,-99.99,,2013-06-01 05:43:00,
2013-06-01 01:52:00,71.0,64.0,-100.00,SW,217,3.0,8.0,79,-99.99,,,-99.99,,2013-06-01 05:52:00,
2013-06-01 02:00:00,69.0,64.0,-100.00,SSW,196,4.0,9.0,82,-99.99,,,-99.99,,2013-06-01 06:00:00,
2013-06-01 02:32:00,69.0,64.0,-100.00,SSW,196,4.0,9.0,82,-99.99,,,-99.99,,2013-06-01 06:32:00,
2013-06-01 02:42:00,69.0,64.0,-100.00,SSW,196,4.0,9.0,82,-99.99,,,-99.99,,2013-06-01 06:42:00,
2013-06-01 02:52:00,69.0,64.0,-100.00,SSW,196,4.0,9.0,82,-99.99,,,-99.99,,2013-06-01 06:52:00,
2013-06-01 03:00:00,68.0,64.0,-100.00,SSW,201,3.0,7.0,86,-99.99,,,-99.99,,2013-06-01 07:00:00,
2013-06-01 03:32:00,68.0,64.0,-100.00,SSW,201,3.0,7.0,86,-99.99,,,-99.99,,2013-06-01 07:32:00,
2013-06-01 03:42:00,68.0,64.0,-100.00,SSW,201,3.0,7.0,86,-99.99,,,-99.99,,2013-06-01 07:42:00,
2013-06-01 03:52:00,68.0,64.0,-100.00,SSW,201,3.0,7.0,86,-99.99,,,-99.99,,2013-06-01 07:52:00,
2013-06-01 05:00:00,67.0,64.0,-100.00,SSW,213,3.0,8.0,90,-99.99,,,-99.99,,2013-06-01 09:00:00,
2013-06-01 05:22:00,67.0,64.0,-100.00,SSW,213,3.0,8.0,90,-99.99,,,-99.99,,2013-06-01 09:22:00,
2013-06-01 05:33:00,67.0,64.0,-100.00,SSW,213,3.0,8.0,90,-99.99,,,-99.99,,2013-06-01 09:33:00,
2013-06-01 05:43:00,67.0,64.0,-100.00,SSW,213,3.0,8.0,90,-99.99,,,-99.99,,2013-06-01 09:43:00,
2013-06-01 05:53:00,67.0,64.0,-100.00,SSW,213,3.0,8.0,90,-99.99,,,-99.99,,2013-06-01 09:53:00,
2013-06-01 06:00:00,67.0,64.0,-100.00,SSW,210,4.0,8.0,91,-99.99,,,-99.99,,2013-06-01 10:00:00,
2013-06-01 06:33:00,67.0,64.0,-100.00,SSW,210,4.0,8.0,91,-99.99,,,-99.99,,2013-06-01 10:33:00,
2013-06-01 06:42:00,67.0,64.0,-100.00,SSW,210,4.0,8.0,91,-99.99,,,-99.99,,2013-06-01 10:42:00,
2013-06-01 06:53:00,67.0,64.0,-100.00,SSW,210,4.0,8.0,91,-99.99,,,-99.99,,2013-06-01 10:53:00,
2013-06-01 07:00:00,70.0,66.0,-100.00,SSW,210,5.0,8.0,86,-99.99,,,-99.99,,2013-06-01 11:00:00,
2013-06-01 07:22:00,70.0,66.0,-100.00,SSW,210,5.0,8.0,86,-99.99,,,-99.99,,2013-06-01 11:22:00,
2013-06-01 07:33:00,70.0,66.0,-100.00,SSW,210,5.0,8.0,86,-99.99,,,-99.99,,2013-06-01 11:33:00,
2013-06-01 07:42:00,70.0,66.0,-100.00,SSW,210,5.0,8.0,86,-99.99,,,-99.99,,2013-06-01 11:42:00,
2013-06-01 07:52:00,70.0,66.0,-100.00,SSW,210,5.0,8.0,86,-99.99,,,-99.99,,2013-06-01 11:52:00,
2013-06-01 08:00:00,75.0,66.0,-100.00,SSW,210,6.0,13.0,75,-99.99,,,-99.99,,2013-06-01 12:00:00,
2013-06-01 08:22:00,75.0,66.0,-100.00,SSW,210,6.0,13.0,75,-99.99,,,-99.99,,2013-06-01 12:22:00,
2013-06-01 08:32:00,75.0,66.0,-100.00,SSW,210,6.0,13.0,75,-99.99,,,-99.99,,2013-06-01 12:32:00,
2013-06-01 08:42:00,75.0,66.0,-100.00,SSW,210,6.0,13.0,75,-99.99,,,-99.99,,2013-06-01 12:42:00,
2013-06-01 08:52:00,75.0,66.0,-100.00,SSW,210,6.0,13.0,75,-99.99,,,-99.99,,2013-06-01 12:52:00,
2013-06-01 09:00:00,80.0,66.0,-100.00,SW,224,6.0,17.0,63,-99.99,,,-99.99,,2013-06-01 13:00:00,
2013-06-01 09:22:00,80.0,66.0,-100.00,SW,224,6.0,17.0,63,-99.99,,,-99.99,,2013-06-01 13:22:00,
2013-06-01 09:32:00,80.0,66.0,-100.00,SW,224,6.0,17.0,63,-99.99,,,-99.99,,2013-06-01 13:32:00,
2013-06-01 09:42:00,80.0,66.0,-100.00,SW,224,6.0,17.0,63,-99.99,,,-99.99,,2013-06-01 13:42:00,
2013-06-01 09:52:00,80.0,66.0,-100.00,SW,224,6.0,17.0,63,-99.99,,,-99.99,,2013-06-01 13:52:00,
2013-06-01 10:00:00,82.0,66.0,-100.00,WSW,237,7.0,18.0,57,-99.99,,,-99.99,,2013-06-01 14:00:00,
2013-06-01 10:22:00,82.0,66.0,-100.00,WSW,237,7.0,18.0,57,-99.99,,,-99.99,,2013-06-01 14:22:00,
2013-06-01 10:32:00,82.0,66.0,-100.00,WSW,237,7.0,18.0,57,-99.99,,,-99.99,,2013-06-01 14:32:00,
2013-06-01 10:42:00,82.0,66.0,-100.00,WSW,237,7.0,18.0,57,-99.99,,,-99.99,,2013-06-01 14:42:00,
2013-06-01 10:52:00,82.0,66.0,-100.00,WSW,237,7.0,18.0,57,-99.99,,,-99.99,,2013-06-01 14:52:00,
2013-06-01 11:00:00,85.0,65.0,-100.00,West,265,13.0,20.0,52,-99.99,,,-99.99,,2013-06-01 15:00:00,
2013-06-01 11:22:00,85.0,65.0,-100.00,West,265,13.0,20.0,52,-99.99,,,-99.99,,2013-06-01 15:22:00,
2013-06-01 11:33:00,85.0,65.0,-100.00,West,265,13.0,20.0,52,-99.99,,,-99.99,,2013-06-01 15:33:00,
2013-06-01 11:43:00,85.0,65.0,-100.00,West,265,13.0,20.0,52,-99.99,,,-99.99,,2013-06-01 15:43:00,
2013-06-01 11:54:00,85.0,65.0,-100.00,West,265,13.0,20.0,52,-99.99,,,-99.99,,2013-06-01 15:54:00,
2013-06-01 12:00:00,86.0,65.0,-100.00,West,268,8.0,18.0,50,-99.99,,,-99.99,,2013-06-01 16:00:00,
2013-06-01 12:33:00,86.0,65.0,-100.00,West,268,8.0,18.0,50,-99.99,,,-99.99,,2013-06-01 16:33:00,
2013-06-01 12:42:00,86.0,65.0,-100.00,West,268,8.0,18.0,50,-99.99,,,-99.99,,2013-06-01 16:42:00,
2013-06-01 12:53:00,86.0,65.0,-100.00,West,268,8.0,18.0,50,-99.99,,,-99.99,,2013-06-01 16:53:00,
2013-06-01 13:00:00,86.0,65.0,-100.00,SW,214,6.0,20.0,50,-99.99,,,-99.99,,2013-06-01 17:00:00,
2013-06-01 13:22:00,86.0,65.0,-100.00,SW,214,6.0,20.0,50,-99.99,,,-99.99,,2013-06-01 17:22:00,
2013-06-01 13:32:00,86.0,65.0,-100.00,SW,214,6.0,20.0,50,-99.99,,,-99.99,,2013-06-01 17:32:00,
2013-06-01 13:43:00,86.0,65.0,-100.00,SW,214,6.0,20.0,50,-99.99,,,-99.99,,2013-06-01 17:43:00,
2013-06-01 13:52:00,86.0,65.0,-100.00,SW,214,6.0,20.0,50,-99.99,,,-99.99,,2013-06-01 17:52:00,
2013-06-01 14:00:00,87.0,64.0,-100.00,WSW,240,11.0,18.0,45,-99.99,,,-99.99,,2013-06-01 18:00:00,
2013-06-01 14:22:00,87.0,64.0,-100.00,WSW,240,11.0,18.0,45,-99.99,,,-99.99,,2013-06-01 18:22:00,
2013-06-01 14:32:00,87.0,64.0,-100.00,WSW,240,11.0,18.0,45,-99.99,,,-99.99,,2013-06-01 18:32:00,
2013-06-01 14:42:00,87.0,64.0,-100.00,WSW,240,11.0,18.0,45,-99.99,,,-99.99,,2013-06-01 18:42:00,
2013-06-01 14:52:00,87.0,64.0,-100.00,WSW,240,11.0,18.0,45,-99.99,,,-99.99,,2013-06-01 18:52:00,
2013-06-01 15:00:00,88.0,61.0,-100.00,SW,236,13.0,22.0,41,-99.99,,,-99.99,,2013-06-01 19:00:00,
2013-06-01 15:32:00,88.0,61.0,-100.00,SW,236,13.0,22.0,41,-99.99,,,-99.99,,2013-06-01 19:32:00,
2013-06-01 15:42:00,88.0,61.0,-100.00,SW,236,13.0,22.0,41,-99.99,,,-99.99,,2013-06-01 19:42:00,
2013-06-01 15:53:00,88.0,61.0,-100.00,SW,236,13.0,22.0,41,-99.99,,,-99.99,,2013-06-01 19:53:00,
2013-06-01 16:00:00,88.0,63.0,-100.00,South,173,10.0,20.0,43,-99.99,,,-99.99,,2013-06-01 20:00:00,
2013-06-01 16:22:00,88.0,63.0,-100.00,South,173,10.0,20.0,43,-99.99,,,-99.99,,2013-06-01 20:22:00,
2013-06-01 16:32:00,88.0,63.0,-100.00,South,173,10.0,20.0,43,-99.99,,,-99.99,,2013-06-01 20:32:00,
2013-06-01 16:42:00,88.0,63.0,-100.00,South,173,10.0,20.0,43,-99.99,,,-99.99,,2013-06-01 20:42:00,
2013-06-01 16:52:00,88.0,63.0,-100.00,South,173,10.0,20.0,43,-99.99,,,-99.99,,2013-06-01 20:52:00,
2013-06-01 17:00:00,88.0,64.0,-100.00,SSW,202,14.0,19.0,45,-99.99,,,-99.99,,2013-06-01 21:00:00,
2013-06-01 17:22:00,88.0,64.0,-100.00,SSW,202,14.0,19.0,45,-99.99,,,-99.99,,2013-06-01 21:22:00,
2013-06-01 17:33:00,88.0,64.0,-100.00,SSW,202,14.0,19.0,45,-99.99,,,-99.99,,2013-06-01 21:33:00,
2013-06-01 17:43:00,88.0,64.0,-100.00,SSW,202,14.0,19.0,45,-99.99,,,-99.99,,2013-06-01 21:43:00,
2013-06-01 17:53:00,88.0,64.0,-100.00,SSW,202,14.0,19.0,45,-99.99,,,-99.99,,2013-06-01 21:53:00,
2013-06-01 18:00:00,87.0,65.0,-100.00,WSW,237,8.0,19.0,48,-99.99,,,-99.99,,2013-06-01 22:00:00,
2013-06-01 18:33:00,87.0,65.0,-100.00,WSW,237,8.0,19.0,48,-99.99,,,-99.99,,2013-06-01 22:33:00,
2013-06-01 18:42:00,87.0,65.0,-100.00,WSW,237,8.0,19.0,48,-99.99,,,-99.99,,2013-06-01 22:42:00,
2013-06-01 18:53:00,87.0,65.0,-100.00,WSW,237,8.0,19.0,48,-99.99,,,-99.99,,2013-06-01 22:53:00,
2013-06-01 19:00:00,85.0,67.0,-100.00,SW,220,4.0,15.0,54,-99.99,,,-99.99,,2013-06-01 23:00:00,
2013-06-01 19:22:00,85.0,67.0,-100.00,SW,220,4.0,15.0,54,-99.99,,,-99.99,,2013-06-01 23:22:00,
2013-06-01 19:32:00,85.0,67.0,-100.00,SW,220,4.0,15.0,54,-99.99,,,-99.99,,2013-06-01 23:32:00,
2013-06-01 19:42:00,85.0,67.0,-100.00,SW,220,4.0,15.0,54,-99.99,,,-99.99,,2013-06-01 23:42:00,
2013-06-01 19:52:00,85.0,67.0,-100.00,SW,220,4.0,15.0,54,-99.99,,,-99.99,,2013-06-01 23:52:00,
2013-06-01 20:00:00,82.0,66.0,-100.00,SSW,206,6.0,13.0,59,-99.99,,,-99.99,,2013-06-02 00:00:00,
2013-06-01 20:32:00,82.0,66.0,-100.00,SSW,206,6.0,13.0,59,-99.99,,,-99.99,,2013-06-02 00:32:00,
2013-06-01 20:42:00,82.0,66.0,-100.00,SSW,206,6.0,13.0,59,-99.99,,,-99.99,,2013-06-02 00:42:00,
2013-06-01 20:52:00,82.0,66.0,-100.00,SSW,206,6.0,13.0,59,-99.99,,,-99.99,,2013-06-02 00:52:00,
2013-06-01 21:00:00,78.0,67.0,-100.00,SSW,210,5.0,10.0,68,-99.99,,,-99.99,,2013-06-02 01:00:00,
2013-06-01 21:22:00,78.0,67.0,-100.00,SSW,210,5.0,10.0,68,-99.99,,,-99.99,,2013-06-02 01:22:00,
2013-06-01 21:32:00,78.0,67.0,-100.00,SSW,210,5.0,10.0,68,-99.99,,,-99.99,,2013-06-02 01:32:00,
2013-06-01 21:42:00,78.0,67.0,-100.00,SSW,210,5.0,10.0,68,-99.99,,,-99.99,,2013-06-02 01:42:00,
2013-06-01 21:52:00,78.0,67.0,-100.00,SSW,210,5.0,10.0,68,-99.99,,,-99.99,,2013-06-02 01:52:00,
2013-06-01 22:00:00,76.0,67.0,-100.00,SSW,195,6.0,10.0,73,-99.99,,,-99.99,,2013-06-02 02:00:00,
2013-06-01 22:32:00,76.0,67.0,-100.00,SSW,195,6.0,10.0,73,-99.99,,,-99.99,,2013-06-02 02:32:00,
2013-06-01 22:42:00,76.0,67.0,-100.00,SSW,195,6.0,10.0,73,-99.99,,,-99.99,,2013-06-02 02:42:00,
2013-06-01 22:52:00,76.0,67.0,-100.00,SSW,195,6.0,10.0,73,-99.99,,,-99.99,,2013-06-02 02:52:00,
2013-06-01 23:00:00,76.0,-99.9,-100.00,SSW,202,5.0,17.0,70,-99.99,,,-99.99,,2013-06-02 03:00:00,
2013-06-01 23:22:00,76.0,65.0,-100.00,SSW,202,5.0,17.0,70,-99.99,,,-99.99,,2013-06-02 03:22:00,
2013-06-01 23:33:00,76.0,65.0,-100.00,SSW,202,5.0,17.0,70,-99.99,,,-99.99,,2013-06-02 03:33:00,
2013-06-01 23:43:00,76.0,65.0,-100.00,SSW,202,5.0,17.0,70,-99.99,,,-99.99,,2013-06-02 03:43:00,
2013-06-01 23:53:00,76.0,65.0,-100.00,SSW,202,5.0,17.0,70,-99.99,,,-99.99,,2013-06-02 03:53:00,